Weather Roundup
Issued by NWS Springfield, MO

Home | Current Version | Previous Version | Text Only | Print | Product List | Glossary On
Versions: 1 2 3 4 5 6 7 8 9 10 11 12 13 14 15 16 17 18 19 20 21 22 23 24 25 26 27 28 29 30 31 32 33 34 35 36 37 38 39 40 41 42 43 44 45 46 47 48 49 50
000
NZUS99 KSGF 211107
HRRSGF

HOURLY WEATHER
NATIONAL WEATHER SERVICE SPRINGFIELD MO
500 AM CST TUE FEB 21 2017

......SGF CWA......

CITY           SKY/WX    TMP DP  RH WIND       PRES   REMARKS
SPRINGFIELD    CLOUDY    54  53  97 N5        29.87F
JOPLIN         FOG       49  49 100 CALM      29.92R VSB 1/2
WEST PLAINS    CLOUDY    57  55  93 NE12      29.89S
ROLLA          FOG       54  54 100 CALM      29.91S VSB 1/4
OSAGE BEACH    LGT RAIN  55  54  94 N3        29.90S FOG
BRANSON        CLOUDY    55  55 100 CALM      29.90R FOG

......SURROUNDING SGF CWA......

CITY           SKY/WX    TMP DP  RH WIND       PRES   REMARKS
CHANUTE        CLEAR     48  45  89 NW9       29.93R
PARSONS        PTCLDY    46  45  96 N8        29.93S FOG
COFFEYVILLE    PTCLDY    47  46  97 NW8       29.93R FOG
EMPORIA        CLEAR     44  41  89 N7        29.97R
GROVE OK       CLOUDY    52  52 100 CALM      29.92R FOG
ROGERS AR      CLOUDY    55  53  93 NW5       29.91R
SILOAM SPRINGS PTCLDY    54  50  87 NW5       29.90R
HARRISON AR    CLOUDY    56  56 100 NW6       29.89S
NEAR YELLVILLE CLOUDY    57  52  82 NW6       29.84S

......KANSAS AND MISSOURI......

CITY           SKY/WX    TMP DP  RH WIND       PRES   REMARKS
KANSAS CTY INT CLOUDY    49  45  86 N9        29.95S
DOWNTOWN KC    MOCLDY    53  46  77 N8        29.95R
COLUMBIA       LGT RAIN  56  56 100 NW6       29.92R
SEDALIA        CLOUDY    55  53  93 N5        29.91F
ST JOSEPH      CLOUDY    42  42 100 CALM      29.97S
ST LOUIS       LGT RAIN  61  59  93 W3        29.93S FOG
SPIRIT OF STL  FOG       59  59 100 CALM      29.92R VSB 1/2
KIRKSVILLE     MOCLDY    51  46  83 N13       29.97R
WICHITA        CLEAR     40  37  89 NW8       30.00R WCI  34
TOPEKA         CLEAR     45  41  86 NW6       29.97S
OLATHE         MOCLDY    51  47  86 N12       29.94R

......TENNESSEE......

CITY           SKY/WX    TMP DP  RH WIND       PRES   REMARKS
MEMPHIS        CLOUDY    61  59  93 SE8       29.86F FOG
NASHVILLE      CLOUDY    56  45  66 E7        30.00R

......ARKANSAS.......

CITY           SKY/WX    TMP DP  RH WIND       PRES   REMARKS
FAYETTEVILLE   LGT RAIN  54  54 100 CALM      29.90R FOG
FT SMITH       CLOUDY    57  55  93 W8        29.87S
LITTLE ROCK    CLOUDY    58  58 100 W3        29.82F

......OKLAHOMA.......

CITY           SKY/WX    TMP DP  RH WIND       PRES   REMARKS
TULSA          FOG       47  47 100 NW5       29.91R VSB 1/8
PONCA CITY     CLEAR     46  42  86 N7        29.97R
MCALESTER      FOG       51  49  92 W5        29.91S VSB 1/4
OKLAHOMA CITY  CLEAR     48  43  82 NW12      29.97R

......IOWA............

CITY           SKY/WX    TMP DP  RH WIND       PRES   REMARKS
DES MOINES     CLEAR     41  39  93 S5        29.96S
QUAD CITIES    CLOUDY    54  49  83 NW8       29.93R

......ILLINOIS........

CITY           SKY/WX    TMP DP  RH WIND       PRES   REMARKS
QUINCY         FOG       58  58 100 CALM      29.92R VSB 1/4
CHICAGO        LGT RAIN  55  51  86 S8        29.90S




USA.gov is the U.S. government's official web portal to all federal, state and local government web resources and services.